BREEZE-M R/B, 40883

Orbit data source: Space-Track

BREEZE-M R/B, 40883 is space debris in HEO originally from a launch on Fri, 28 Aug 2015 UTC launched from the Tyuratam Missile And Space Complex (TTMTR). Debris objects in space refer to the collection of defunct objects orbiting the Earth. Examples of debris include non-operational satellites, rocket bodies, and fragments generated from explosions, collisions, or faulty payload assembly.

Loading next visibility...
Identifier
40883, 2015-042B
Orbit
HEO
Country
Flag of CISCIS
Related business
Manufacturer
Khrunichev
Mission
Spacecraft
Bus & Motor
BRIZ, Unknown motor
Mass
~1,600 kg wet, 1,600 kg dry
Launch date (UTC)
2015-08-28 (11 years ago)
Launch vehicle
Unknown
Launch site
Tyuratam Missile And Space Complex (TTMTR)
Object type
Payload
Rocket body
Debris
Shape & HBR
Cyl, 2.0 m
Radar Cross Section
15.135 m², Large (>1 m²)

Expand to show TLE details & history
Last TLE update: 9 hours ago

TLE from 9 hours ago
0 BREEZE-M R/B
1 40883U 15042B   26062.11685244 -.00000099  00000-0  00000+0 0  9990
2 40883  27.1374  86.6055 7963438 142.1496 316.6416  1.10226360 42336
Epoch: 2026-03-03T02:48Z
TLE epoch observation values (Epoch: 2026-03-03T02:48:16.050Z)
Latitude
Longitude
-116.14625°
Altitude
32,440.133 km
Speed
3.235 km/s
True Right ascension
05h 47m 17s
True Declination
0° 00' 00"
Sunlit
Object was in daylight at epoch
Visualization orbit readout
Latitude
Unknown
Longitude
Unknown
Altitude
Unknown
Speed
Unknown
Apparent Right ascension
Unknown
Apparent Declination
Unknown
Sunlit
N/A
Visualization observer readout
Local Sidereal Time
15:40:27
Azimuth
Unknown
Elevation
Unknown
Doppler factor
Unknown
Orbital elements
Apogee altitude
64,738.717 km
Perigee altitude
1,684.567 km
Semi-major axis
39,589.779 km
Eccentricity
0.79634
Inclination
27.1374°
RAAN
86.6055°
Arg. of periapsis
142.1496°
True anomaly
217.84004°
Mean anomaly
316.6416°
Eccentric anomaly
271.02172°
Mean motion
0.27553 °/min
Orbital period
1,306.57 mins
BSTAR
0
Loading maneuver chart data...
Computing Atmospheric mass density...
Loading historical data...
Loading historical data...
Loading historical data...
Loading historical data...
Loading historical data...
Loading historical data...
Loading historical data...
Other satellites on launch #42 in the year 2015 (2015-08-28 UTC)

Documentation

Showing up to 5 results
|